Regional Weather Roundup
Issued by NWS

Home | Current Version | Previous Version | Text Only | Print | Product List | Glossary Off
Versions: 1 2 3 4 5 6 7 8 9 10 11 12 13 14 15 16 17 18 19 20 21 22 23 24 25 26 27 28 29 30 31 32 33 34 35 36 37 38 39 40 41 42 43 44 45 46 47 48 49 50

000
ASUS43 KLSX 261407
RWRMO

WEATHER SUMMARY FOR MISSOURI
NATIONAL WEATHER SERVICE SPRINGFIELD MO
900 AM CDT TUE MAY 26 2015

NOTE: "FAIR" INDICATES FEW OR NO CLOUDS BELOW 12,000 FEET WITH NO
       SIGNIFICANT WEATHER AND/OR OBSTRUCTIONS TO VISIBILITY.
       CURRENT SKY AND/OR WEATHER CONDITIONS ARE NOT AVAILABLE FOR
       CHILLICOTHE AND FARMINGTON.

MOZ001>031-035>038-043-044-053-054-261500-
...NORTHERN AND WESTERN MISSOURI...

CITY           SKY/WX    TMP DP  RH WIND       PRES   REMARKS
KANSAS CTY INT CLOUDY    63  61  93 S12       29.84F
KANSAS C DTWN  CLOUDY    66  60  81 SW10      29.85S
LEE`S SUMMIT   PTSUNNY   64  60  87 SW12      29.87R
ST JOSEPH      CLOUDY    64  60  87 S9        29.83R
CHILLICOTHE      N/A     65  62  90 SW7       29.83R
KIRKSVILLE     CLOUDY    67  61  81 W12       29.78S

$$
MOZ066>068-077>081-088>096-101>105-261500-
...SOUTHWEST MISSOURI...

CITY           SKY/WX    TMP DP  RH WIND       PRES   REMARKS
SPRINGFIELD    CLOUDY    66  58  75 SW12      29.94R
JOPLIN         PTSUNNY   63  59  87 SW10      29.95R

$$
MOZ032>034-039>042-045>050-055>058-069>072-261500-
...CENTRAL MISSOURI...

CITY           SKY/WX    TMP DP  RH WIND       PRES   REMARKS
COLUMBIA       CLOUDY    67  61  81 SW18G26   29.85S
JEFFERSON CITY CLOUDY    68  61  78 SW15G22   29.87R
ROLLA          CLOUDY    66  61  84 SW14      29.89S
SEDALIA        LGT RAIN  65  59  81 SW7       29.88R
WHITEMAN AFB   CLOUDY    64  61  91 W13       29.87R
WARRENSBURG    PTSUNNY   63  59  88 S10       29.87S
OSAGE BEACH    CLOUDY    66  59  77 SW10      29.89R

$$
MOZ051-052-059>065-261500-
...EAST CENTRAL MISSOURI...

CITY           SKY/WX    TMP DP  RH WIND       PRES   REMARKS
ST LOUIS INTL  PTSUNNY   70  64  81 SW14      29.88S
SPIRIT OF STL  PTSUNNY   70  64  81 SW16G23   29.86F
ST CHARLES     PTSUNNY   70  65  84 SW17G25   29.86S

$$
MOZ072>076-082>087-097>100-106>115-261500-
...SOUTH CENTRAL AND SOUTHEAST MISSOURI...

CITY           SKY/WX    TMP DP  RH WIND       PRES   REMARKS
CAPE GIRARDEAU PTSUNNY   72  67  84 SW22G29   29.96R
FARMINGTON     MOSUNNY   68  63  83 SW17G23   29.97R
POPLAR BLUFF   CLOUDY    68  61  78 SW16      29.98R
WEST PLAINS    CLOUDY    63  58  83 SW10      29.98R

$$


USA.gov is the U.S. government's official web portal to all federal, state and local government web resources and services.